Pittsfield, IL

6:46 PM CDT on May 22, 2018 (GMT -0500)
Pittsfield Penstone Municipal

Weather History for KPPQ - January, 2014

Change the Weather History Date:

Sunday, January 19, 2014

  Actual Average (WUND) Record (WUND)
Temperature  
Mean Temperature 34 °F -  
Max Temperature 48 °F - - (-1)
Min Temperature 21 °F - - (-1)
Degree Days  
Heating Degree Days 30    
Moisture  
Dew Point 23 °F    
Average Humidity 64    
Maximum Humidity 85    
Minimum Humidity 44    
Precipitation  
Precipitation 0.00 in - - ()
Sea Level Pressure  
Sea Level Pressure 29.87 in    
Wind  
Wind Speed 12 mph (SW)    
Max Wind Speed 21 mph    
Max Gust Speed 26 mph    
Visibility 10 miles    
Events      
Averages and records for this station are not official NWS values.
T = Trace of Precipitation, MM = Missing Value Source: NWS Daily Summary

Daily Weather History Graph

Daily Weather History Graph

Search for Another Location

Airport or City:

Astronomy

Jan. 19, 2014 Rise Set
Actual Time 7:20 AM CST 5:07 PM CST
Civil Twilight 6:51 AM CST 5:37 PM CST
Nautical Twilight 6:18 AM CST 6:10 PM CST
Astronomical Twilight 5:45 AM CST 6:42 PM CST
Moon 8:45 PM CST (1/19) 8:51 AM CST (1/19)
Length of Visible Light 10h 46m
Length of Day
9h 47m
Waning Gibbous, 89% of the Moon is Illuminated
Jan 19
Waning Gibbous
Jan 23
Last Quarter
Jan 30
New
Feb 6
First Quarter
Feb 14
Full

Hourly Weather History & Observations

Time (CST) Temp. Windchill Dew Point Humidity Pressure Visibility Wind Dir Wind Speed Gust Speed Precip Events Conditions
12:15 AM 24.1 °F 12.0 °F 18.3 °F 79% 30.00 in 10.0 mi NW 13.8 mph - N/A   Overcast
12:35 AM 23.9 °F 13.5 °F 18.1 °F 79% 30.02 in 10.0 mi WNW 10.4 mph - N/A   Overcast
12:55 AM 23.0 °F 11.1 °F 17.1 °F 78% 30.01 in 10.0 mi WNW 12.7 mph 19.6 mph N/A   Overcast
1:15 AM 23.0 °F 12.4 °F 17.4 °F 79% 30.02 in 10.0 mi WNW 10.4 mph 17.3 mph N/A   Overcast
1:35 AM 22.8 °F 10.4 °F 16.5 °F 77% 30.03 in 10.0 mi WNW 13.8 mph 20.7 mph N/A   Overcast
1:55 AM 22.1 °F 12.8 °F 16.5 °F 79% 30.03 in 10.0 mi WNW 8.1 mph - N/A   Overcast
2:15 AM 21.9 °F 12.5 °F 15.8 °F 77% 30.03 in 10.0 mi West 8.1 mph - N/A   Scattered Clouds
2:35 AM 21.6 °F 12.1 °F 15.8 °F 78% 30.03 in 10.0 mi West 8.1 mph - N/A   Clear
2:55 AM 21.4 °F 12.8 °F 16.2 °F 80% 30.04 in 10.0 mi West 6.9 mph - N/A   Clear
3:15 AM 21.4 °F 11.9 °F 16.5 °F 82% 30.04 in 10.0 mi West 8.1 mph - N/A   Clear
3:35 AM 21.2 °F 12.6 °F 16.5 °F 82% 30.02 in 10.0 mi WSW 6.9 mph - N/A   Clear
3:55 AM 21.2 °F 12.6 °F 16.7 °F 83% 30.01 in 10.0 mi SW 6.9 mph - N/A   Clear
4:15 AM 21.2 °F 11.7 °F 16.7 °F 83% 30.00 in 10.0 mi SW 8.1 mph - N/A   Clear
4:35 AM 21.2 °F 11.7 °F 16.7 °F 83% 30.00 in 10.0 mi SW 8.1 mph - N/A   Clear
4:55 AM 21.2 °F 11.7 °F 17.2 °F 85% 29.99 in 10.0 mi SW 8.1 mph - N/A   Clear
5:15 AM 21.2 °F 11.7 °F 17.1 °F 84% 29.99 in 10.0 mi SW 8.1 mph - N/A   Clear
5:35 AM 21.9 °F 13.4 °F 17.4 °F 83% 29.99 in 10.0 mi SW 6.9 mph - N/A   Clear
5:55 AM 22.1 °F 12.0 °F 17.6 °F 83% 29.98 in 10.0 mi SW 9.2 mph - N/A   Clear
6:15 AM 22.1 °F 11.3 °F 17.6 °F 83% 29.99 in 10.0 mi SW 10.4 mph - N/A   Clear
6:35 AM 21.9 °F 11.0 °F 17.6 °F 83% 29.98 in 10.0 mi SW 10.4 mph - N/A   Clear
6:55 AM 21.9 °F 11.0 °F 17.6 °F 83% 29.97 in 10.0 mi SW 10.4 mph - N/A   Clear
7:15 AM 21.9 °F 11.7 °F 17.4 °F 83% 29.99 in 10.0 mi SW 9.2 mph - N/A   Clear
7:35 AM 21.9 °F 10.4 °F 17.6 °F 83% 29.98 in 10.0 mi SW 11.5 mph - N/A   Clear
7:55 AM 22.3 °F 10.2 °F 17.8 °F 83% 29.98 in 10.0 mi SW 12.7 mph - N/A   Clear
8:15 AM 23.0 °F 11.1 °F 18.1 °F 82% 29.97 in 10.0 mi SW 12.7 mph - N/A   Clear
8:35 AM 24.1 °F 12.0 °F 18.5 °F 79% 29.97 in 10.0 mi SW 13.8 mph - N/A   Clear
8:55 AM 25.2 °F 15.1 °F 19.0 °F 78% 29.97 in 10.0 mi SW 10.4 mph 19.6 mph N/A   Clear
9:15 AM 26.6 °F 15.7 °F 19.8 °F 75% 29.97 in 10.0 mi SW 12.7 mph 17.3 mph N/A   Clear
9:35 AM 28.0 °F 17.5 °F 20.7 °F 74% 29.96 in 10.0 mi SW 12.7 mph 20.7 mph N/A   Clear
9:55 AM 29.3 °F 19.1 °F 21.9 °F 74% 29.96 in 10.0 mi SW 12.7 mph - N/A   Clear
10:15 AM 30.7 °F 19.6 °F 23.0 °F 73% 29.96 in 10.0 mi SW 16.1 mph 21.9 mph N/A   Clear
10:35 AM 32.0 °F 21.2 °F 23.9 °F 72% 29.95 in 10.0 mi SW 16.1 mph 24.2 mph N/A   Clear
10:55 AM 33.8 °F 22.8 °F 25.3 °F 71% 29.94 in 10.0 mi SW 18.4 mph 26.5 mph N/A   Clear
11:15 AM 35.2 °F 24.1 °F 25.9 °F 69% 29.92 in 10.0 mi SW 20.7 mph 24.2 mph N/A   Clear
11:35 AM 37.4 °F 27.5 °F 27.3 °F 67% 29.89 in 10.0 mi SW 18.4 mph 25.3 mph N/A   Clear
11:55 AM 39.4 °F 30.7 °F 28.0 °F 64% 29.87 in 10.0 mi SW 16.1 mph 21.9 mph N/A   Clear
12:15 PM 41.0 °F 32.2 °F 28.6 °F 61% 29.85 in 10.0 mi SW 18.4 mph 24.2 mph N/A   Clear
12:35 PM 42.1 °F 34.5 °F 28.6 °F 59% 29.83 in 10.0 mi SW 15.0 mph 24.2 mph N/A   Clear
12:55 PM 43.3 °F 35.8 °F 28.8 °F 56% 29.82 in 10.0 mi SW 16.1 mph 23.0 mph N/A   Clear
1:15 PM 44.2 °F 37.0 °F 28.8 °F 55% 29.81 in 10.0 mi SW 16.1 mph 21.9 mph N/A   Clear
1:35 PM 45.5 °F 38.1 °F 28.0 °F 51% 29.80 in 10.0 mi SW 18.4 mph 25.3 mph N/A   Clear
1:55 PM 46.4 °F 39.8 °F 29.1 °F 51% 29.78 in 10.0 mi SW 16.1 mph 23.0 mph N/A   Clear
2:15 PM 46.9 °F - 29.1 °F 50% 29.77 in 10.0 mi SSW 17.3 mph 24.2 mph N/A   Clear
2:35 PM 47.3 °F - 28.0 °F 47% 29.75 in 10.0 mi SSW 17.3 mph 25.3 mph N/A   Clear
2:55 PM 48.2 °F - 28.6 °F 47% 29.74 in 10.0 mi SSW 12.7 mph 25.3 mph N/A   Clear
3:15 PM 48.6 °F - 27.7 °F 44% 29.73 in 10.0 mi SSW 17.3 mph 21.9 mph N/A   Clear
3:35 PM 48.4 °F - 28.6 °F 46% 29.73 in 10.0 mi SSW 12.7 mph 17.3 mph N/A   Clear
3:55 PM 48.0 °F - 28.6 °F 47% 29.73 in 10.0 mi SSW 12.7 mph 19.6 mph N/A   Clear
4:15 PM 47.7 °F - 28.0 °F 47% 29.73 in 10.0 mi SSW 11.5 mph - N/A   Clear
4:35 PM 47.5 °F - 27.3 °F 46% 29.73 in 10.0 mi SSW 11.5 mph 17.3 mph N/A   Clear
4:55 PM 46.6 °F - 27.5 °F 47% 29.73 in 10.0 mi SSW 11.5 mph - N/A   Clear
5:15 PM 45.3 °F 40.1 °F 27.5 °F 50% 29.73 in 10.0 mi SSW 10.4 mph - N/A   Clear
5:35 PM 45.0 °F 39.7 °F 27.1 °F 50% 29.72 in 10.0 mi SSW 10.4 mph - N/A   Clear
5:55 PM 44.6 °F 39.7 °F 27.3 °F 51% 29.73 in 10.0 mi SSW 9.2 mph - N/A   Clear
6:15 PM 45.5 °F 39.9 °F 26.6 °F 48% 29.73 in 10.0 mi SW 11.5 mph - N/A   Clear
6:55 PM 45.3 °F 39.3 °F 26.8 °F 48% 29.72 in 10.0 mi SW 12.7 mph 17.3 mph N/A   Clear
7:15 PM 45.5 °F 40.3 °F 26.6 °F 48% 29.73 in 10.0 mi SW 10.4 mph - N/A   Clear
7:35 PM 46.0 °F 39.6 °F 26.8 °F 47% 29.73 in 10.0 mi SW 15.0 mph 19.6 mph N/A   Clear
7:55 PM 46.8 °F - 26.8 °F 46% 29.73 in 10.0 mi SW 13.8 mph 21.9 mph N/A   Clear
8:15 PM 47.3 °F - 27.0 °F 45% 29.73 in 10.0 mi SW 13.8 mph 21.9 mph N/A   Clear
8:35 PM 46.9 °F - 27.3 °F 46% 29.73 in 10.0 mi SW 13.8 mph 18.4 mph N/A   Clear
8:55 PM 46.4 °F 40.7 °F 27.7 °F 48% 29.73 in 10.0 mi SW 12.7 mph 18.4 mph N/A   Clear
9:15 PM 46.9 °F - 28.0 °F 48% 29.72 in 10.0 mi WSW 15.0 mph 23.0 mph N/A   Clear
9:35 PM 46.6 °F - 28.4 °F 49% 29.72 in 10.0 mi WSW 13.8 mph 18.4 mph N/A   Clear
9:55 PM 45.9 °F 40.8 °F 28.6 °F 51% 29.73 in 10.0 mi WSW 10.4 mph - N/A   Clear
10:15 PM 45.5 °F 39.9 °F 28.6 °F 52% 29.73 in 10.0 mi WSW 11.5 mph - N/A   Clear
10:35 PM 46.6 °F - 28.8 °F 50% 29.73 in 10.0 mi WSW 12.7 mph 18.4 mph N/A   Clear
10:55 PM 46.6 °F - 28.9 °F 50% 29.73 in 10.0 mi WSW 11.5 mph 17.3 mph N/A   Clear
11:15 PM 46.6 °F - 28.4 °F 49% 29.73 in 10.0 mi WSW 10.4 mph 17.3 mph N/A   Clear
11:35 PM 46.2 °F 42.2 °F 28.4 °F 50% 29.75 in 10.0 mi West 8.1 mph - N/A   Clear
11:55 PM 45.7 °F 41.5 °F 28.4 °F 51% 29.75 in 10.0 mi West 8.1 mph - N/A   Clear